Frisco, NC

3:07 PM EST on January 19, 2017 (GMT -0500)
Mitchell

Weather History for KHSE - November, 2013

Change the Weather History Date:

Monday, November 18, 2013

  Actual Average Record
Temperature  
Mean Temperature 65 °F 57 °F  
Max Temperature 71 °F 63 °F 79 °F (1994)
Min Temperature 59 °F 51 °F 28 °F (1973)
Degree Days  
Heating Degree Days 0 9  
Month to date heating degree days 107 119  
Since 1 July heating degree days 158 194  
Cooling Degree Days 0 1  
Month to date cooling degree days 22 18  
Year to date cooling degree days 1990 1708  
Growing Degree Days 16 (Base 50)    
Moisture  
Dew Point 64 °F    
Average Humidity 82    
Maximum Humidity 100    
Minimum Humidity 64    
Precipitation  
Precipitation T in 0.16 in 2.00 in (1932)
Month to date precipitation 1.59 3.16  
Year to date precipitation 47.07 51.98  
Snow  
Snow 0.00 in - - ()
Month to date snowfall 0.0  
Since 1 July snowfall 0.0  
Snow Depth 0.00 in    
Sea Level Pressure  
Sea Level Pressure 29.86 in    
Wind  
Wind Speed 7 mph (SW)    
Max Wind Speed 15 mph    
Max Gust Speed 21 mph    
Visibility 6 miles    
Events Rain    
T = Trace of Precipitation, MM = Missing Value Source: NWS Daily Summary

Daily Weather History Graph

Daily Weather History Graph

Search for Another Location

Airport or City:

Trip Planner

Search our weather history database for the weather conditions in past years. The results will help you decide how hot, cold, wet, or windy it might be!

Date:

Astronomy

Nov. 18, 2013 Rise Set
Actual Time 6:40 AM EST 4:54 PM EST
Civil Twilight 6:13 AM EST 5:21 PM EST
Nautical Twilight 5:42 AM EST 5:52 PM EST
Astronomical Twilight 5:12 AM EST 6:22 PM EST
Moon 5:55 PM EST (11/18) 7:26 AM EST (11/18)
Length of Visible Light 11h 08m
Length of Day
10h 13m
Full, 99% of the Moon is Illuminated
Nov 18
Full
Nov 25
Last Quarter
Dec 2
New
Dec 9
First Quarter
Dec 17
Full

Hourly Weather History & Observations

Time (EST) Temp. Dew Point Humidity Pressure Visibility Wind Dir Wind Speed Gust Speed Precip Events Conditions
12:51 AM 66.9 °F 64.9 °F 93% 29.96 in 8.0 mi SSW 8.1 mph - N/A   Overcast
1:07 AM 66.2 °F 64.4 °F 94% 29.95 in 7.0 mi SSW 10.4 mph - N/A   Overcast
1:42 AM 66.2 °F 66.2 °F 100% 29.93 in 6.0 mi SSW 10.4 mph - 0.00 in   Overcast
1:51 AM 66.9 °F 66.0 °F 97% 29.94 in 6.0 mi SSW 9.2 mph - 0.00 in   Mostly Cloudy
2:07 AM 68.0 °F 66.2 °F 94% 29.93 in 4.0 mi SSW 11.5 mph 16.1 mph 0.00 in Rain Light Rain
2:11 AM 68.0 °F 66.2 °F 94% 29.93 in 4.0 mi SSW 12.7 mph 19.6 mph 0.00 in Rain Light Rain
2:26 AM 66.2 °F 66.2 °F 100% 29.92 in 6.0 mi SW 11.5 mph - 0.00 in   Overcast
2:51 AM 66.9 °F 66.0 °F 97% 29.91 in 6.0 mi SSW 13.8 mph 19.6 mph 0.00 in   Overcast
3:51 AM 68.0 °F 66.0 °F 93% 29.89 in 6.0 mi SW 11.5 mph 19.6 mph 0.00 in   Overcast
4:29 AM 66.2 °F 66.2 °F 100% 29.90 in 5.0 mi SW 10.4 mph - N/A   Overcast
4:51 AM 66.9 °F 66.0 °F 97% 29.89 in 5.0 mi SW 9.2 mph - N/A   Overcast
5:25 AM 66.2 °F 66.2 °F 100% 29.89 in 4.0 mi SW 9.2 mph - N/A   Mostly Cloudy
5:51 AM 66.9 °F 66.0 °F 97% 29.90 in 5.0 mi SSW 8.1 mph - N/A   Mostly Cloudy
6:23 AM 66.2 °F 66.2 °F 100% 29.89 in 6.0 mi SW 8.1 mph - N/A   Overcast
6:51 AM 66.9 °F 66.0 °F 97% 29.89 in 6.0 mi SW 8.1 mph - N/A   Overcast
7:34 AM 66.2 °F 66.2 °F 100% 29.88 in 4.0 mi SW 5.8 mph - 0.00 in   Mostly Cloudy
7:51 AM 66.9 °F 66.0 °F 97% 29.88 in 4.0 mi SW 5.8 mph - 0.00 in   Scattered Clouds
8:51 AM 68.0 °F 66.9 °F 96% 29.89 in 4.0 mi WSW 6.9 mph - N/A   Overcast
9:51 AM 68.0 °F 66.9 °F 96% 29.88 in 4.0 mi WSW 8.1 mph - 0.00 in   Overcast
10:00 AM 69.8 °F 66.2 °F 88% 29.88 in 5.0 mi WSW 6.9 mph - N/A   Overcast
10:03 AM 69.8 °F 66.2 °F 88% 29.88 in 5.0 mi WSW 8.1 mph - N/A   Overcast
10:51 AM 68.0 °F 66.0 °F 93% 29.86 in 5.0 mi WSW 10.4 mph - N/A   Overcast
11:30 AM 68.0 °F 66.2 °F 94% 29.84 in 5.0 mi SW 5.8 mph - N/A   Overcast
11:39 AM 68.0 °F 66.2 °F 94% 29.83 in 5.0 mi WSW 8.1 mph - N/A   Overcast
11:51 AM 69.1 °F 66.9 °F 93% 29.83 in 6.0 mi SW 5.8 mph - N/A   Overcast
12:08 PM 69.8 °F 66.2 °F 88% 29.82 in 7.0 mi WSW 10.4 mph - N/A   Scattered Clouds
12:51 PM 71.1 °F 66.9 °F 87% 29.80 in 8.0 mi WSW 9.2 mph - N/A   Scattered Clouds
1:01 PM 71.6 °F 66.2 °F 83% 29.80 in 8.0 mi WSW 10.4 mph - N/A   Mostly Cloudy
1:31 PM 69.8 °F 66.2 °F 88% 29.79 in 7.0 mi WSW 8.1 mph - N/A   Scattered Clouds
1:51 PM 70.0 °F 66.0 °F 87% 29.78 in 7.0 mi WSW 8.1 mph - N/A   Clear
2:51 PM 68.0 °F 66.0 °F 93% 29.78 in 5.0 mi SW 8.1 mph - N/A   Mostly Cloudy
3:51 PM 68.0 °F 66.0 °F 93% 29.79 in 4.0 mi West 6.9 mph - N/A   Overcast
4:38 PM 66.2 °F 64.4 °F 94% 29.80 in 4.0 mi WSW 5.8 mph - N/A   Scattered Clouds
4:51 PM 66.9 °F 64.9 °F 93% 29.80 in 3.0 mi WSW 5.8 mph - N/A   Mostly Cloudy
5:51 PM 66.9 °F 64.9 °F 93% 29.81 in 4.0 mi West 4.6 mph - N/A   Mostly Cloudy
6:51 PM 62.1 °F 60.1 °F 93% 29.83 in 10.0 mi Variable 3.5 mph - N/A   Partly Cloudy
7:51 PM 61.0 °F 55.0 °F 81% 29.84 in 10.0 mi Calm Calm - N/A   Clear
8:51 PM 61.0 °F 51.1 °F 70% 29.84 in 10.0 mi Variable 3.5 mph - N/A   Clear
9:51 PM 61.0 °F 50.0 °F 67% 29.85 in 10.0 mi Variable 3.5 mph - N/A   Clear
10:51 PM 60.1 °F 48.9 °F 67% 29.86 in 10.0 mi Variable 4.6 mph - N/A   Clear
11:51 PM 59.0 °F 46.9 °F 64% 29.86 in 10.0 mi Variable 4.6 mph - N/A   Clear